Regional Weather Roundup
Issued by NWS

Home | Current Version | Previous Version | Graphics & Text | Print | Product List | Glossary On
Versions: 1 2 3 4 5 6 7 8 9 10 11 12 13 14 15 16 17 18 19 20 21 22 23 24 25 26 27 28 29 30 31 32 33 34 35 36 37 38 39 40 41 42 43 44 45 46 47 48 49 50
000
ASUS43 KBIS 290902
RWRND

NORTH DAKOTA REGIONAL WEATHER ROUNDUP
NATIONAL WEATHER SERVICE BISMARCK ND
400 AM CDT FRI MAY 29 2015

NOTE: "FAIR" INDICATES FEW OR NO CLOUDS BELOW 12,000 FEET WITH NO
SIGNIFICANT WEATHER AND/OR OBSTRUCTIONS TO VISIBILITY.


NDZ001>003-009>011-017-291000-
NORTHWEST NORTH DAKOTA

CITY           SKY/WX    TMP DP  RH WIND       PRES   REMARKS
WILLISTON      CLOUDY    46  34  62 N15       30.23R
MINOT          CLOUDY    47  38  71 N21G30    30.11R
$$

NDZ018>021-031>035-040>046-291000-
SOUTHWEST NORTH DAKOTA

CITY           SKY/WX    TMP DP  RH WIND       PRES   REMARKS
BISMARCK       CLOUDY    52  47  83 N23G31    30.04R
DICKINSON      CLOUDY    47  44  90 N18G25    30.12R
GARRISON         N/A     50  42  74 N14G25    30.10R
HETTINGER ARPT CLOUDY    49  46  90 N20G32    30.08R
$$

NDZ004>008-012>016-024-026-027-054-291000-
NORTHEAST NORTH DAKOTA

CITY           SKY/WX    TMP DP  RH WIND       PRES   REMARKS
GRAND FORKS    CLOUDY    50  46  86 N30G38    29.95R
DEVILS LAKE    CLOUDY    48  39  71 N24G36    30.03R
$$

NDZ022-023-025-028>030-036>039-047>053-291000-
SOUTHEAST NORTH DAKOTA

CITY           SKY/WX    TMP DP  RH WIND       PRES   REMARKS
FARGO          LGT RAIN  61  59  93 N17       29.87R FOG
JAMESTOWN      CLOUDY    55  51  86 N26       29.95R
$$



USA.gov is the U.S. government's official web portal to all federal, state and local government web resources and services.